{"data":{"norad_id":66335,"intl_designator":"2025-253S","name":"STARLINK-35417","alt_names":[],"object_type":"PAYLOAD","status":"ACTIVE","operator":null,"country":"US","launch_date":"2025-11-06","launch_site_code":"AFETR","launch_vehicle":null,"mission":null,"orbit_class":"UNKNOWN","rcs_meters":null,"size_class":null,"mass_kg":null,"dimensions":null,"purposes":["comms"],"wikipedia_slug":null,"has_3d_model":false,"image_url":null,"decayed_at":null,"tle_current":{"epoch":"2026-09-20T03:30:35.422848Z","epoch_age_seconds":123779,"freshness":"FRESH","line1":"1 66335U 25253S   26263.14624332  .00013823  00000+0  51082-3 0  9999","line2":"2 66335  43.0001 194.3625 0001649 266.4362  93.6301 15.27584899 49982","mean_motion":15.27584899,"eccentricity":0.0001649,"inclination_deg":43.0001,"raan_deg":194.3625,"arg_perigee_deg":266.4362,"mean_anomaly_deg":93.6301,"bstar":0.00051082,"rev_number":4998,"period_min":94.266446398015,"perigee_km":481.90301954219,"apogee_km":484.16583387871,"semimajor_km":6861.1714267104,"source":"CELESTRAK","updated_at":"2026-09-21T09:00:35.876145Z"}}}